[[{"header":{"parameterUnit":"m.s-1","parameterCategory":1,"la1":30.2991,"la2":30.254,"lo1":-89.0895,"lo2":-89.0444,"dy":0.0017,"dx":0.0017,"nx":28,"ny":28,"refTime":"2025-03-18T21:00:00:Z","depth":0,"parameterNumber":2,"parameterNumberName":"U-component_of_WINDS"},"data":[0,0,0,0,0,0,0,0,0,0,0,0,0,0,0,0,0,0,0,0,0,0,0,0,0,0,0,0,0,0,0,0,0,0,0,0,0,0,0,0,0,0,0,0,0,0,0,0,0,0,0,0,0,0,0,0,0,0,-1.9761,-1.9761,0,-1.974,-1.974,-1.9739,-1.9652,-1.965,-1.9648,-1.9646,-1.9626,-1.9627,-1.9628,0,0,0,0,0,0,0,0,0,0,0,0,0,-1.9727,-1.9728,-1.9761,-1.9761,-1.976,-1.974,-1.974,-1.9739,-1.9652,-1.965,-1.9647,-1.9645,-1.9625,-1.9627,-1.9628,0,0,0,0,0,0,0,0,0,0,0,0,0,-1.9728,-1.9729,-1.9761,-1.9714,-1.971,-1.974,-1.974,-1.9739,-1.9653,-1.9649,-1.9646,-1.9644,-1.9625,-1.9627,-1.9629,-1.9702,0,0,-1.9635,-1.9636,0,0,0,0,0,0,0,0,-1.9728,-1.9729,-1.9721,-1.9718,-1.9713,-1.9695,-1.972,-1.9727,-1.9653,-1.9674,-1.9646,-1.9642,-1.9651,-1.9651,-1.9654,-1.9701,-1.97,-1.9635,-1.9636,-1.9637,-1.9638,0,0,0,0,0,0,0,-1.9728,-1.9729,-1.9752,-1.9721,-1.9716,-1.9695,-1.9692,-1.9721,-1.968,-1.9672,-1.9666,-1.9665,-1.9648,-1.9652,-1.9653,-1.97,-1.9635,-1.9637,-1.9638,-1.9639,-1.9807,-1.981,0,0,0,0,0,0,-1.9734,-1.973,-1.9753,-1.9752,-1.9713,-1.9698,-1.9694,-1.9704,-1.968,-1.9673,-1.9667,-1.9661,-1.965,-1.965,-1.9652,-1.9736,-1.9637,-1.9639,-1.964,-1.9804,-1.9808,-1.9811,0,0,0,0,0,0,-1.9734,-1.9737,-1.9754,-1.9739,-1.974,-1.9702,-1.9713,-1.9705,-1.9708,-1.9676,-1.9668,-1.9678,-1.9648,-1.9649,-1.969,-1.9734,-1.964,-1.9642,-1.98,-1.9805,-1.981,-1.9905,0,0,0,0,0,0,-1.9733,-1.9737,-1.9765,-1.974,-1.9741,-1.9793,-1.9716,-1.9707,-1.9712,-1.9703,-1.9684,-1.9678,-1.9645,-1.9688,-1.9692,-1.9735,-1.9643,-1.9796,-1.9802,-1.9808,-1.9898,-1.9913,-1.9926,0,0,0,0,0,-1.9732,-1.9793,-1.9766,-1.977,-1.9774,-1.9795,-1.9796,-1.9756,-1.9716,-1.9743,-1.9722,-1.9679,-1.9729,-1.9693,-1.9697,-1.9741,-1.9793,-1.9801,-1.9808,-1.9892,-1.991,-1.9925,0,0,0,0,0,0,-1.9823,-1.9788,-1.9759,-1.9813,-1.9808,-1.9781,-1.9813,-1.9777,-1.9783,-1.9774,-1.9726,-1.9722,-1.9771,-1.976,-1.9721,-1.9811,-1.9754,-1.9762,-1.9816,-1.9833,-1.9847,-1.9848,-1.9645,0,0,0,0,0,-1.9849,-1.9869,-1.9838,-1.9889,-1.9888,-1.9852,-1.9859,-1.983,-1.9822,-1.982,-1.9802,-1.9797,-1.9811,-1.9822,-1.9833,-1.9897,-1.9891,-1.9929,-1.9943,-1.9955,-1.9962,-1.9995,-2.0011,-1.9835,-1.9835,-1.9835,0,0,-1.9904,-1.9887,-1.9903,-1.9907,-1.9899,-1.9921,-1.985,-1.9876,-1.9892,-1.9824,-1.9861,-1.9849,-1.984,-1.9893,-1.9915,-1.9885,-2.001,-1.9964,-1.9973,-1.9974,-2.0004,-2.0021,-2.0036,-1.984,-1.984,-1.9839,0,0,-2.0014,-2.0004,-2.0045,-2.0039,-2.0028,-2.0004,-2.0014,-1.9992,-1.9981,-2.0018,-1.9967,-1.9986,-2.0012,-2.0008,-2.0009,-2.012,-2.008,-2.0125,-2.0196,-2.0229,-2.0242,-2.0254,-2.0293,-2.0308,-2.0133,-2.0133,-2.0133,0,-2.0083,-2.0113,-2.0071,-2.01,-2.0104,-2.0043,-2.0084,-2.0081,-2.0075,-2.0079,-2.0046,-2.0077,-2.0067,-2.0118,-2.0145,-2.0149,-2.0159,-2.0126,-2.0244,-2.0256,-2.0266,-2.0303,-2.0317,-2.0139,-2.0138,-2.0137,-2.0137,0,-2.0199,-2.0221,-2.0256,-2.0251,-2.0258,-2.0294,-2.0257,-2.027,-2.0241,-2.022,-2.0259,-2.0245,-2.0253,-2.0263,-2.0234,-2.031,-2.0292,-2.0252,-2.0193,-2.0289,-2.0322,-2.0336,-2.0146,-2.0144,-2.0143,-2.0141,0,0,-2.0363,-2.0336,-2.0349,-2.0346,-2.0331,-2.0347,-2.0381,-2.0388,-2.04,-2.0399,-2.0425,-2.0449,-2.0413,-2.0414,-2.0385,-2.0414,-2.0502,-2.037,-2.0369,-2.0395,-2.0584,-2.0613,-2.063,-2.0476,-2.0478,-2.048,-2.0585,0,-2.0468,-2.0522,-2.0485,-2.0546,-2.0566,-2.0509,-2.0539,-2.0533,-2.0515,-2.053,-2.051,-2.0528,-2.0479,-2.0479,-2.0505,-2.0486,-2.0539,-2.0478,-2.05,-2.0501,-2.0502,-2.0648,-2.0678,-2.0777,-2.0598,-2.06,-2.0601,0,-2.0596,-2.06,-2.0663,-2.0643,-2.0651,-2.0677,-2.0681,-2.0696,-2.0689,-2.0674,-2.0677,-2.064,-2.0672,-2.0615,-2.0659,-2.0618,-2.0625,-2.0617,-2.062,-2.0619,-2.0556,-2.065,-2.0808,-2.0822,-2.0622,-2.062,-2.0619,0,-2.0709,-2.073,-2.077,-2.077,-2.0749,-2.0769,-2.0761,-2.0751,-2.0758,-2.0762,-2.0766,-2.0774,-2.0778,-2.0786,-2.0752,-2.0714,-2.08,-2.0741,-2.0789,-2.079,-2.0808,-2.0807,-2.0968,-2.0815,-2.0815,-2.0815,-2.0814,0,-2.0828,-2.0868,-2.082,-2.0845,-2.0889,-2.0847,-2.0892,-2.0878,-2.087,-2.0891,-2.0844,-2.0865,-2.082,-2.0837,-2.0812,-2.0852,-2.0854,-2.0843,-2.0836,-2.0847,-2.0848,-2.085,-2.0841,-2.0819,-2.0818,-2.0817,-2.0816,0,-2.096,-2.093,-2.097,-2.0947,-2.0943,-2.0976,-2.0957,-2.0979,-2.0958,-2.0986,-2.099,-2.0959,-2.0976,-2.0944,-2.0958,-2.0941,-2.0996,-2.0979,-2.0999,-2.0993,-2.1042,-2.1038,-2.1209,-2.1229,-2.1065,-2.1067,-2.1068,0,-2.1038,-2.1067,-2.1048,-2.1059,-2.1054,-2.1072,-2.1079,-2.104,-2.1049,-2.1044,-2.1067,-2.108,-2.1089,-2.112,-2.1098,-2.1108,-2.109,-2.1149,-2.1091,-2.1101,-2.109,-2.1088,-2.109,-2.1161,-2.1163,-2.1164,-2.1166,0,-2.1178,-2.1162,-2.1173,-2.118,-2.119,-2.1193,-2.1194,-2.1205,-2.1164,-2.1177,-2.1194,-2.1201,-2.1215,-2.1229,-2.1235,-2.1227,-2.119,-2.1185,-2.1196,-2.1207,-2.1216,-2.1211,-2.103,-2.118,-2.1179,-2.1178,-2.1177,-2.1176,-2.1284,-2.1308,-2.1298,-2.1313,-2.1309,-2.1311,-2.133,-2.1313,-2.1326,-2.1334,-2.1311,-2.1334,-2.1327,-2.133,-2.1327,-2.1345,-2.1318,-2.1335,-2.1339,-2.1343,-2.1351,-2.1215,-2.1346,-2.1345,-2.1345,-2.1344,-2.1344,0,-2.142,-2.1412,-2.1426,-2.1428,-2.144,-2.1404,-2.1403,-2.1415,-2.1436,-2.1432,-2.1442,-2.1462,-2.1476,-2.1456,-2.1467,-2.1485,-2.1468,-2.1489,-2.1486,-2.1485,-2.1374,-2.1363,-2.1502,-2.1502,-2.1502,-2.1502,-2.1502,-2.1502,-2.1493,-2.1531,-2.1514,-2.155,-2.1541,-2.1563,-2.1566,-2.1567,-2.1564,-2.1589,-2.16,-2.1587,-2.1577,-2.1587,-2.1598,-2.1592,-2.1598,-2.1624,-2.1612,-2.1509,-2.1493,-2.1478,-2.1467,-2.1626,-2.1626,-2.1721,-2.1722,-2.1723]},{"header":{"parameterUnit":"m.s-1","parameterCategory":1,"la1":30.2991,"la2":30.254,"lo1":-89.0895,"lo2":-89.0444,"dy":0.0017,"dx":0.0017,"nx":28,"ny":28,"refTime":"2025-03-18T21:00:00:Z","depth":0,"parameterNumber":3,"parameterNumberName":"V-component_of_WINDS"},"data":[0,0,0,0,0,0,0,0,0,0,0,0,0,0,0,0,0,0,0,0,0,0,0,0,0,0,0,0,0,0,0,0,0,0,0,0,0,0,0,0,0,0,0,0,0,0,0,0,0,0,0,0,0,0,0,0,0,0,0.2199,0.2198,0,0.21,0.2099,0.2098,0.2055,0.2055,0.2055,0.2055,0.1953,0.1951,0.1948,0,0,0,0,0,0,0,0,0,0,0,0,0,0.2352,0.2349,0.2199,0.2198,0.2197,0.21,0.2099,0.2097,0.2055,0.2055,0.2055,0.2055,0.1954,0.1951,0.1947,0,0,0,0,0,0,0,0,0,0,0,0,0,0.2272,0.2349,0.2199,0.2164,0.216,0.21,0.2099,0.2097,0.2055,0.2055,0.2055,0.2055,0.1955,0.1951,0.1947,0.1916,0,0,0.1934,0.1932,0,0,0,0,0,0,0,0,0.2277,0.2267,0.217,0.2166,0.2161,0.209,0.2115,0.2036,0.2055,0.2095,0.2055,0.2056,0.1999,0.1991,0.1972,0.1911,0.1906,0.1933,0.1931,0.1929,0.1928,0,0,0,0,0,0,0,0.2283,0.2271,0.216,0.2169,0.2163,0.2153,0.2142,0.21,0.2046,0.2091,0.2088,0.2077,0.1996,0.1976,0.1969,0.1905,0.1934,0.193,0.1927,0.1925,0.1814,0.1814,0,0,0,0,0,0,0.2294,0.2276,0.2163,0.2157,0.2221,0.215,0.2138,0.2113,0.2047,0.2037,0.2076,0.2075,0.1983,0.1974,0.1965,0.1924,0.1929,0.1925,0.1923,0.1814,0.1814,0.1813,0,0,0,0,0,0,0.2297,0.2284,0.2167,0.2215,0.22,0.2147,0.2119,0.2111,0.209,0.2036,0.2026,0.2066,0.1983,0.1971,0.1928,0.192,0.1923,0.1919,0.1815,0.1814,0.1814,0.1842,0,0,0,0,0,0,0.2302,0.2286,0.2273,0.2215,0.2197,0.2132,0.2119,0.2108,0.2083,0.208,0.2023,0.2014,0.1982,0.1935,0.1924,0.1914,0.1916,0.1815,0.1815,0.1814,0.1842,0.1843,0.1843,0,0,0,0,0,0.2308,0.2285,0.2273,0.2259,0.218,0.2132,0.2121,0.2085,0.2082,0.2069,0.2035,0.2015,0.1923,0.1931,0.1918,0.1907,0.1816,0.1815,0.1814,0.1841,0.1842,0.1843,0,0,0,0,0,0,0.2343,0.2277,0.2262,0.222,0.2182,0.2124,0.2107,0.2088,0.2049,0.2048,0.2005,0.1993,0.1954,0.1926,0.1936,0.1873,0.1868,0.1864,0.1893,0.1893,0.1894,0.1902,0.1912,0,0,0,0,0,0.2346,0.2312,0.2256,0.2224,0.2206,0.216,0.2137,0.2113,0.2071,0.2055,0.2017,0.1977,0.1939,0.1915,0.1877,0.1838,0.1825,0.1824,0.1825,0.1826,0.1823,0.1801,0.18,0.1811,0.1811,0.1811,0,0,0.2351,0.2311,0.2292,0.223,0.2197,0.2163,0.2146,0.211,0.2085,0.2049,0.2006,0.1978,0.193,0.189,0.187,0.1865,0.1817,0.1825,0.1826,0.1822,0.18,0.1799,0.1798,0.181,0.181,0.181,0,0,0.2344,0.231,0.228,0.2248,0.2199,0.2169,0.2162,0.2107,0.2086,0.2043,0.2016,0.1985,0.192,0.1888,0.1863,0.1844,0.1825,0.1833,0.1837,0.1816,0.1815,0.1814,0.1808,0.1806,0.1831,0.1831,0.1831,0,0.2357,0.2304,0.2267,0.2233,0.2207,0.2174,0.2143,0.2114,0.2055,0.2038,0.2034,0.1952,0.1918,0.1869,0.1865,0.1846,0.1837,0.1839,0.1818,0.1817,0.1816,0.1809,0.1807,0.1832,0.1832,0.1832,0.1832,0,0.2322,0.2286,0.2268,0.2212,0.2184,0.2152,0.2111,0.2086,0.2065,0.2036,0.1992,0.195,0.1904,0.189,0.1869,0.1839,0.1838,0.1827,0.182,0.1817,0.1809,0.1807,0.1834,0.1834,0.1833,0.1833,0,0,0.2333,0.2259,0.2252,0.2227,0.2171,0.2142,0.2109,0.2064,0.2044,0.2005,0.1976,0.1922,0.1912,0.1884,0.1859,0.184,0.1829,0.1831,0.183,0.1832,0.1793,0.1801,0.1799,0.1816,0.1815,0.1815,0.1797,0,0.2318,0.2257,0.2223,0.2176,0.2143,0.2112,0.2083,0.2045,0.2017,0.1984,0.1953,0.1916,0.1905,0.1888,0.1868,0.1834,0.182,0.1835,0.1789,0.1787,0.1801,0.1795,0.1804,0.1788,0.1794,0.1793,0.1793,0,0.2292,0.2254,0.2204,0.2152,0.2137,0.2111,0.2067,0.2036,0.1994,0.1974,0.1944,0.1919,0.1883,0.188,0.1829,0.184,0.182,0.18,0.1799,0.1793,0.179,0.1789,0.1783,0.1781,0.1788,0.1789,0.1789,0,0.2305,0.2241,0.2203,0.2182,0.2121,0.2104,0.2078,0.2035,0.201,0.1972,0.1955,0.1913,0.189,0.1858,0.1823,0.1824,0.1776,0.177,0.1759,0.176,0.175,0.1751,0.1741,0.1737,0.1737,0.1738,0.1738,0,0.2291,0.2262,0.2208,0.2184,0.2151,0.2113,0.208,0.2052,0.2014,0.1985,0.1955,0.1928,0.1883,0.1851,0.1823,0.1786,0.1776,0.1759,0.1752,0.1762,0.1764,0.1747,0.1747,0.1737,0.1737,0.1737,0.1737,0,0.23,0.2263,0.2219,0.2165,0.2151,0.2128,0.2082,0.2058,0.2029,0.1992,0.1981,0.1935,0.1895,0.1857,0.1804,0.1785,0.1748,0.1739,0.1763,0.1759,0.175,0.1751,0.1728,0.1723,0.1724,0.1724,0.1724,0,0.2294,0.227,0.2214,0.2192,0.2167,0.2132,0.2107,0.2069,0.2043,0.1993,0.1976,0.1934,0.1898,0.1836,0.1798,0.1757,0.1747,0.1741,0.174,0.1751,0.1746,0.1748,0.1746,0.1742,0.1742,0.1742,0.1743,0,0.2286,0.2269,0.2234,0.2192,0.2162,0.2128,0.2092,0.2076,0.2031,0.2004,0.1963,0.1936,0.1882,0.1841,0.1796,0.1769,0.1748,0.1743,0.1739,0.1748,0.1763,0.1754,0.1765,0.1744,0.1744,0.1744,0.1744,0.1743,0.2287,0.2265,0.2222,0.2184,0.2153,0.212,0.2095,0.2063,0.2029,0.1982,0.1962,0.192,0.1879,0.1816,0.179,0.1757,0.1752,0.1745,0.1743,0.1742,0.1744,0.1768,0.1749,0.1749,0.1748,0.1748,0.1748,0,0.2278,0.2249,0.2214,0.2165,0.2135,0.2119,0.2079,0.2055,0.2019,0.1982,0.1948,0.1902,0.1862,0.1821,0.1779,0.176,0.175,0.1751,0.1751,0.1746,0.1751,0.1759,0.176,0.176,0.176,0.176,0.176,0.176,0.2269,0.2231,0.221,0.2156,0.2127,0.2087,0.2066,0.2036,0.2006,0.1955,0.1922,0.1896,0.1857,0.1813,0.1775,0.1764,0.175,0.1754,0.174,0.1746,0.1745,0.1744,0.1752,0.1751,0.1751,0.1737,0.1737,0.1737]}]]